User: anonymous   Login
Location: Unspecified
(0.0000°N, 0.0000°E)
Time: 09:30:59
(UTC+00:00)
Language:

COSMOS 2429 - Orbit

View from above orbital plane
View from above orbital plane
View from above satellite
View from above satellite

Ground track
Ground track

The orbit data is extracted from the following two-line orbital elements,

1 32052U 07038A   18023.87255471 +.00000026 +00000-0 +11352-4 0  9997
2 32052 082.9826 305.1829 0038932 154.6809 205.6266 13.74898310520272
Epoch (UTC): 23 January 2018 20:56:28
Eccentricity: 0.0038932
inclination: 82.9826°
perigee height: 953 km
apogee height: 1010 km
right ascension of ascending node: 305.1829°
argument of perigee: 154.6809°
revolutions per day: 13.74898310
mean anomaly at epoch: 205.6266°
orbit number at epoch: 52027

The dashed part of the orbit path shows where the satellite is in the earth's shadow,  

DLR